Weather History for KOWD - May, 2013

Change the Weather History Date:

Wednesday, May 1, 2013

  Actual Average Record
Temperature  
Mean Temperature 50 °F -  
Max Temperature 68 °F 64 °F 86 °F (2001)
Min Temperature 33 °F 40 °F 26 °F (2008)
Degree Days  
Heating Degree Days 14    
Moisture  
Dew Point 34 °F    
Average Humidity 61    
Maximum Humidity 100    
Minimum Humidity 28    
Precipitation  
Precipitation 0.00 in - - ()
Sea Level Pressure  
Sea Level Pressure 30.44 in    
Wind  
Wind Speed 2 mph (East)    
Max Wind Speed 10 mph    
Max Gust Speed 16 mph    
Visibility 8 miles    
Events      
Averages and records for this station are not official NWS values.
T = Trace of Precipitation, MM = Missing Value Source: NWS Daily Summary

Daily Weather History Graph

Daily Weather History Graph

Search for Another Location

Airport or City:

Trip Planner

Search our weather history database for the weather conditions in past years. The results will help you decide how hot, cold, wet, or windy it might be!

Date:

Astronomy

May. 01, 2013 Rise Set
Actual Time 5:39 AM EDT 7:44 PM EDT
Civil Twilight 5:09 AM EDT 8:14 PM EDT
Nautical Twilight 4:32 AM EDT 8:52 PM EDT
Astronomical Twilight 3:51 AM EDT 9:33 PM EDT
Moon 12:51 AM EDT (5/1) 11:14 AM EDT (5/1)
Length of Visible Light 15h 05m
Length of Day
14h 04m
Waning Gibbous, 59% of the Moon is Illuminated
May 1
Waning Gibbous
May 2
Last Quarter
May 9
New
May 18
First Quarter
May 25
Full

Hourly Weather History & Observations

Time (EDT) Temp. Dew Point Humidity Pressure Visibility Wind Dir Wind Speed Gust Speed Precip Events Conditions
1:53 AM 36.0 °F 32.0 °F 86% 30.38 in 10.0 mi Calm Calm - N/A   Clear
2:53 AM 37.0 °F 33.1 °F 86% 30.39 in 10.0 mi Calm Calm - N/A   Clear
3:53 AM 34.0 °F 32.0 °F 92% 30.40 in 10.0 mi Calm Calm - N/A   Clear
4:48 AM 33.8 °F 32.0 °F 93% 30.41 in 1.8 mi Calm Calm - N/A   Clear
4:53 AM 34.0 °F 33.1 °F 96% 30.41 in 1.2 mi Calm Calm - N/A   Clear
4:59 AM 33.8 °F 33.8 °F 100% 30.42 in 3.0 mi Calm Calm - N/A   Clear
5:03 AM 33.8 °F 33.8 °F 100% 30.42 in 1.8 mi Calm Calm - N/A   Clear
5:20 AM 33.8 °F 33.8 °F 100% 30.42 in 3.0 mi Calm Calm - N/A   Clear
5:53 AM 33.1 °F 32.0 °F 96% 30.43 in 9.0 mi Calm Calm - N/A   Clear
6:53 AM 37.9 °F 36.0 °F 93% 30.44 in 10.0 mi Calm Calm - N/A   Clear
7:53 AM 48.0 °F 36.0 °F 63% 30.45 in 10.0 mi Calm Calm - N/A   Clear
8:53 AM 57.9 °F 34.0 °F 41% 30.46 in 10.0 mi Calm Calm - N/A   Clear
9:53 AM 62.1 °F 30.9 °F 31% 30.46 in 10.0 mi NE 6.9 mph - N/A   Clear
10:53 AM 64.0 °F 32.0 °F 30% 30.47 in 10.0 mi Variable 3.5 mph - N/A   Clear
11:53 AM 66.0 °F 35.1 °F 32% 30.46 in 10.0 mi East 6.9 mph - N/A   Clear
12:53 PM 66.9 °F 35.1 °F 31% 30.45 in 10.0 mi Variable 6.9 mph 16.1 mph N/A   Clear
1:53 PM 68.0 °F 34.0 °F 28% 30.45 in 10.0 mi ESE 10.4 mph - N/A   Clear
2:53 PM 68.0 °F 34.0 °F 28% 30.44 in 10.0 mi ESE 8.1 mph - N/A   Clear
3:53 PM 66.9 °F 34.0 °F 30% 30.44 in 10.0 mi East 10.4 mph - N/A   Clear
4:53 PM 66.9 °F 33.1 °F 28% 30.43 in 10.0 mi Variable 6.9 mph - N/A   Clear
5:53 PM 66.0 °F 32.0 °F 28% 30.44 in 10.0 mi ENE 8.1 mph - N/A   Clear
6:53 PM 64.0 °F 34.0 °F 33% 30.45 in 10.0 mi East 8.1 mph - N/A   Clear
7:53 PM 59.0 °F 34.0 °F 39% 30.46 in 10.0 mi SSE 3.5 mph - N/A   Clear
8:53 PM 52.0 °F 36.0 °F 54% 30.46 in 10.0 mi Calm Calm - N/A   Clear
9:53 PM 48.0 °F 36.0 °F 63% 30.46 in 10.0 mi Calm Calm - N/A   Clear
10:53 PM 44.1 °F 36.0 °F 73% 30.46 in 10.0 mi Calm Calm - N/A   Clear
11:53 PM 43.0 °F 36.0 °F 76% 30.46 in 10.0 mi Calm Calm - N/A   Clear